contact:dominique.lefevre@mio.osupytheas.fr, maurice.libes@osupytheas.fr, didier.mallarino@osupytheas.fr
Project:EMSO http://www.emso-fr.org/EMSO-France
Depth: 2436.0 m
Title:EMSO Ligure Ouest : Data MII capteur AQUADOPP
Date,Latitude,Longitude,X_East,Y_North,Z_Up,Amplitude_X,Amplitude_Y,Amplitude_Z,Batterie,SoundSpeed,Heading,Pitch,Roll,Pressure,TIS,Speed,Direction
, degrees North, degrees East, m.s-1, m.s-1,m.s-1, 1, 1, 1, Volt, m.s-1, degree, degree, degree, dbar, degree_C, m.s-1, degree
2023-04-03T00:04:02,42.805,6.029,-0.023,0.067,0.034,101.0,104.0,100.0,13.4,1505.2,328.3,-0.7,1.8,2471.183,13.28,0.07,341.1
2023-04-03T00:07:03,42.805,6.029,-0.049,0.038,-0.003,101.0,104.0,100.0,13.4,1505.2,340.8,-0.8,1.8,2471.179,13.28,0.062,307.8
2023-04-03T00:10:03,42.805,6.029,-0.015,0.06,0.008,101.0,104.0,101.0,13.3,1505.2,333.8,-0.7,1.8,2471.154,13.29,0.061,346.0
2023-04-03T00:13:03,42.805,6.029,-0.028,0.051,0.012,103.0,104.0,101.0,13.4,1505.2,337.1,-0.7,1.8,2471.143,13.29,0.058,331.2
2023-04-03T00:16:03,42.805,6.029,-0.056,0.03,-0.002,102.0,103.0,100.0,13.4,1505.2,322.4,-0.7,1.8,2471.11,13.29,0.063,298.2
2023-04-03T00:19:03,42.805,6.029,-0.042,0.033,-0.025,104.0,101.0,101.0,13.4,1505.2,332.9,-0.8,1.8,2471.143,13.29,0.053,308.2
2023-04-03T00:22:03,42.805,6.029,-0.042,0.015,-0.001,103.0,104.0,100.0,13.4,1505.2,315.5,-0.8,1.8,2471.137,13.29,0.044,289.6
2023-04-03T00:25:03,42.805,6.029,-0.031,0.054,-0.019,102.0,104.0,100.0,13.4,1505.2,333.4,-0.8,1.8,2471.158,13.29,0.062,330.1
2023-04-03T00:28:03,42.805,6.029,-0.032,0.032,-0.003,101.0,105.0,100.0,13.4,1505.2,333.0,-0.7,1.8,2471.124,13.29,0.045,315.0
2023-04-03T00:31:03,42.805,6.029,-0.063,0.072,0.012,100.0,104.0,100.0,13.4,1505.2,331.5,-0.8,1.8,2471.137,13.29,0.095,318.8
2023-04-03T00:34:03,42.805,6.029,-0.029,0.049,-0.013,102.0,104.0,102.0,13.4,1505.2,328.7,-0.8,1.8,2471.146,13.29,0.056,329.4
2023-04-03T00:37:03,42.805,6.029,-0.055,0.054,-0.017,100.0,104.0,101.0,13.3,1505.2,328.7,-0.7,1.8,2471.127,13.29,0.077,314.5
2023-04-03T00:40:03,42.805,6.029,-0.058,0.08,0.024,101.0,105.0,101.0,13.3,1505.2,338.4,-0.8,1.8,2471.124,13.29,0.098,324.1
2023-04-03T00:43:03,42.805,6.029,-0.033,0.042,-0.015,100.0,104.0,100.0,13.4,1505.2,331.9,-0.7,1.8,2471.094,13.29,0.053,321.8
2023-04-03T00:46:03,42.805,6.029,-0.046,0.041,-0.021,103.0,104.0,99.0,13.4,1505.2,331.9,-0.8,1.8,2471.113,13.29,0.061,311.7
2023-04-03T00:49:03,42.805,6.029,-0.032,0.067,-0.011,101.0,105.0,101.0,13.3,1505.2,341.2,-0.8,1.8,2471.156,13.29,0.074,334.5
2023-04-03T00:52:03,42.805,6.029,-0.043,0.055,0.014,102.0,106.0,101.0,13.4,1505.2,326.0,-0.8,1.8,2471.139,13.29,0.069,322.0
2023-04-03T00:55:03,42.805,6.029,-0.06,0.072,0.024,101.0,107.0,100.0,13.4,1505.2,322.4,-0.8,1.8,2471.134,13.29,0.093,320.2
2023-04-03T00:58:03,42.805,6.029,-0.053,0.046,0.002,102.0,105.0,101.0,13.4,1505.2,319.0,-0.8,1.8,2471.164,13.29,0.07,311.0
2023-04-03T01:04:03,42.805,6.029,-0.043,0.04,0.014,105.0,106.0,102.0,13.3,1505.2,323.2,-0.8,1.8,2471.219,13.28,0.058,312.9
2023-04-03T01:07:03,42.805,6.029,-0.009,0.026,-0.021,101.0,105.0,102.0,13.4,1505.2,330.1,-0.8,1.8,2471.19,13.28,0.027,340.9
2023-04-03T01:10:03,42.805,6.029,-0.042,0.031,0.005,101.0,106.0,99.0,13.4,1505.2,323.6,-0.8,1.9,2471.178,13.28,0.052,306.4
2023-04-03T01:13:03,42.805,6.029,-0.066,0.062,-0.001,102.0,105.0,101.0,13.4,1505.2,337.8,-0.7,1.8,2471.173,13.29,0.09,313.2
2023-04-03T01:16:03,42.805,6.029,-0.025,0.052,-0.004,101.0,106.0,100.0,13.3,1505.2,342.8,-0.8,1.8,2471.182,13.29,0.057,334.3
2023-04-03T01:19:03,42.805,6.029,-0.033,0.078,0.049,102.0,105.0,100.0,13.3,1505.2,341.2,-0.8,1.8,2471.139,13.29,0.084,337.1
2023-04-03T01:22:03,42.805,6.029,-0.018,0.058,0.009,101.0,105.0,101.0,13.3,1505.2,341.2,-0.7,1.8,2471.14,13.29,0.06,342.8
2023-04-03T01:25:03,42.805,6.029,-0.02,0.059,0.034,99.0,105.0,101.0,13.4,1505.2,320.1,-0.8,1.8,2471.163,13.29,0.062,341.3
2023-04-03T01:28:03,42.805,6.029,-0.053,0.028,-0.016,103.0,102.0,101.0,13.4,1505.2,324.5,-0.8,1.8,2471.147,13.29,0.059,297.9
2023-04-03T01:31:03,42.805,6.029,-0.028,0.057,-0.003,102.0,105.0,101.0,13.4,1505.2,343.3,-0.8,1.8,2471.157,13.29,0.063,333.8
2023-04-03T01:34:03,42.805,6.029,-0.045,0.049,-0.013,100.0,106.0,99.0,13.4,1505.2,319.1,-0.8,1.8,2471.145,13.29,0.066,317.4
2023-04-03T01:37:03,42.805,6.029,-0.064,0.033,-0.016,102.0,104.0,100.0,13.3,1505.2,321.8,-0.8,1.8,2471.132,13.29,0.072,297.3
2023-04-03T01:40:03,42.805,6.029,-0.035,0.039,0.002,101.0,106.0,101.0,13.3,1505.2,330.9,-0.8,1.8,2471.168,13.29,0.052,318.1
2023-04-03T01:43:03,42.805,6.029,-0.002,0.062,0.027,102.0,104.0,100.0,13.4,1505.2,343.9,-0.8,1.8,2471.16,13.29,0.062,358.2
2023-04-03T01:46:03,42.805,6.029,-0.043,0.04,-0.024,102.0,105.0,100.0,13.3,1505.2,330.2,-0.8,1.8,2471.141,13.29,0.058,312.9
2023-04-03T01:49:03,42.805,6.029,-0.033,0.035,-0.012,103.0,105.0,101.0,13.3,1505.2,325.1,-0.7,1.8,2471.202,13.29,0.048,316.7
2023-04-03T01:52:03,42.805,6.029,-0.048,0.05,0.003,102.0,104.0,100.0,13.4,1505.2,320.5,-0.8,1.9,2471.218,13.29,0.069,316.2
2023-04-03T01:55:03,42.805,6.029,-0.029,0.062,0.036,102.0,105.0,100.0,13.3,1505.2,332.2,-0.8,1.8,2471.161,13.29,0.068,334.9
2023-04-03T01:58:03,42.805,6.029,-0.029,0.059,0.002,101.0,103.0,101.0,13.4,1505.2,338.4,-0.8,1.8,2471.146,13.29,0.065,333.8
2023-04-03T02:04:03,42.805,6.029,-0.007,0.036,0.027,100.0,105.0,102.0,13.3,1505.2,318.0,-0.8,1.8,2471.212,13.28,0.036,349.0
2023-04-03T02:07:03,42.805,6.029,-0.025,0.031,-0.014,103.0,105.0,102.0,13.3,1505.2,333.9,-0.8,1.8,2471.215,13.28,0.039,321.1
2023-04-03T02:10:03,42.805,6.029,-0.044,0.053,0.001,103.0,104.0,100.0,13.3,1505.2,322.5,-0.7,1.8,2471.21,13.29,0.068,320.3
2023-04-03T02:13:03,42.805,6.029,-0.016,0.03,0.03,102.0,105.0,100.0,13.4,1505.2,325.0,-0.8,1.8,2471.211,13.29,0.034,331.9
2023-04-03T02:16:03,42.805,6.029,-0.054,0.046,0.009,101.0,103.0,101.0,13.3,1505.2,326.5,-0.8,1.8,2471.231,13.29,0.07,310.4
2023-04-03T02:19:03,42.805,6.029,-0.042,0.054,-0.003,100.0,106.0,100.0,13.3,1505.2,331.7,-0.8,1.8,2471.204,13.29,0.068,322.1
2023-04-03T02:22:03,42.805,6.029,-0.004,0.045,0.015,102.0,104.0,100.0,13.3,1505.2,338.2,-0.7,1.8,2471.165,13.29,0.045,354.9
2023-04-03T02:25:03,42.805,6.029,-0.048,0.06,0.016,102.0,104.0,99.0,13.3,1505.2,329.2,-0.8,1.8,2471.199,13.29,0.076,321.3
2023-04-03T02:28:03,42.805,6.029,-0.047,0.051,0.006,102.0,104.0,100.0,13.4,1505.2,324.8,-0.7,1.8,2471.169,13.29,0.069,317.3
2023-04-03T02:31:03,42.805,6.029,-0.044,0.051,-0.005,101.0,105.0,100.0,13.3,1505.2,327.3,-0.7,1.8,2471.17,13.29,0.067,319.2
2023-04-03T02:34:03,42.805,6.029,-0.049,0.047,0.015,102.0,105.0,100.0,13.4,1505.2,326.0,-0.7,1.8,2471.193,13.29,0.067,313.8
2023-04-03T02:37:03,42.805,6.029,-0.034,0.036,0.024,102.0,104.0,100.0,13.4,1505.2,332.2,-0.7,1.8,2471.182,13.29,0.049,316.6
2023-04-03T02:40:03,42.805,6.029,-0.048,0.037,-0.014,103.0,105.0,101.0,13.3,1505.2,319.6,-0.8,1.8,2471.17,13.29,0.06,307.6
2023-04-03T02:43:03,42.805,6.029,-0.046,0.024,-0.035,102.0,103.0,100.0,13.4,1505.2,332.1,-0.8,1.8,2471.22,13.29,0.051,297.6
2023-04-03T02:46:03,42.805,6.029,-0.035,0.02,-0.034,102.0,103.0,101.0,13.4,1505.2,319.6,-0.8,1.8,2471.193,13.29,0.04,299.7
2023-04-03T02:49:03,42.805,6.029,-0.046,0.043,-0.012,102.0,105.0,100.0,13.3,1505.2,316.8,-0.8,1.8,2471.249,13.29,0.062,313.1
2023-04-03T02:52:03,42.805,6.029,-0.046,0.037,-0.017,104.0,105.0,101.0,13.4,1505.2,331.3,-0.8,1.8,2471.176,13.29,0.059,308.8
2023-04-03T02:55:03,42.805,6.029,-0.041,0.045,-0.005,102.0,105.0,101.0,13.4,1505.2,335.8,-0.8,1.8,2471.17,13.29,0.06,317.7
2023-04-03T02:58:03,42.805,6.029,-0.036,0.026,-0.016,100.0,106.0,102.0,13.4,1505.2,326.3,-0.8,1.8,2471.194,13.29,0.044,305.8
2023-04-03T03:04:03,42.805,6.029,-0.017,0.035,0.003,101.0,104.0,100.0,13.4,1505.2,331.1,-0.8,1.8,2471.282,13.28,0.038,334.1
2023-04-03T03:07:03,42.805,6.029,-0.044,0.033,-0.021,102.0,104.0,100.0,13.4,1505.2,320.0,-0.8,1.8,2471.272,13.28,0.055,306.9
2023-04-03T03:10:03,42.805,6.029,-0.027,0.026,0.008,105.0,103.0,100.0,13.4,1505.2,328.6,-0.8,1.8,2471.232,13.29,0.037,313.9
2023-04-03T03:13:03,42.805,6.029,-0.025,0.024,-0.035,102.0,105.0,100.0,13.3,1505.2,323.3,-0.8,1.8,2471.282,13.29,0.034,313.8
2023-04-03T03:16:03,42.805,6.029,-0.043,0.043,0.019,102.0,105.0,100.0,13.4,1505.2,334.7,-0.8,1.8,2471.237,13.29,0.06,315.0
2023-04-03T03:19:03,42.805,6.029,-0.06,0.027,-0.008,102.0,103.0,99.0,13.4,1505.2,327.1,-0.8,1.8,2471.246,13.29,0.065,294.2
2023-04-03T03:22:03,42.805,6.029,-0.031,0.03,-0.01,103.0,104.0,101.0,13.4,1505.2,328.5,-0.8,1.8,2471.207,13.29,0.043,314.1
2023-04-03T03:25:03,42.805,6.029,-0.034,0.035,0.012,102.0,105.0,101.0,13.3,1505.2,325.7,-0.8,1.8,2471.242,13.29,0.048,315.8
2023-04-03T03:28:03,42.805,6.029,-0.064,0.065,0.007,102.0,104.0,100.0,13.4,1505.2,325.0,-0.8,1.8,2471.218,13.29,0.091,315.4
2023-04-03T03:31:03,42.805,6.029,-0.024,0.034,0.009,102.0,105.0,101.0,13.4,1505.2,338.5,-0.7,1.8,2471.237,13.29,0.041,324.8
2023-04-03T03:34:03,42.805,6.029,-0.051,0.057,0.0,102.0,106.0,100.0,13.4,1505.2,335.2,-0.8,1.8,2471.223,13.29,0.076,318.2
2023-04-03T03:37:03,42.805,6.029,-0.025,0.031,0.009,103.0,103.0,101.0,13.4,1505.2,320.7,-0.8,1.8,2471.229,13.29,0.039,321.1
2023-04-03T03:40:03,42.805,6.029,-0.045,0.038,-0.01,102.0,104.0,100.0,13.4,1505.2,316.8,-0.8,1.8,2471.215,13.29,0.058,310.2
2023-04-03T03:43:03,42.805,6.029,-0.027,0.046,0.008,102.0,104.0,101.0,13.3,1505.2,323.7,-0.8,1.9,2471.234,13.29,0.053,329.6
2023-04-03T03:46:03,42.805,6.029,-0.077,0.034,0.0,102.0,103.0,102.0,13.4,1505.2,318.0,-0.8,1.8,2471.241,13.29,0.084,293.8
2023-04-03T03:49:03,42.805,6.029,-0.039,0.037,0.0,101.0,105.0,101.0,13.3,1505.2,328.7,-0.8,1.8,2471.24,13.29,0.053,313.5
2023-04-03T03:52:03,42.805,6.029,-0.051,0.039,-0.02,103.0,102.0,101.0,13.3,1505.2,336.5,-0.7,1.8,2471.216,13.29,0.064,307.4
2023-04-03T03:55:03,42.805,6.029,-0.04,0.012,-0.032,103.0,103.0,101.0,13.4,1505.2,321.2,-0.8,1.8,2471.285,13.29,0.041,286.7
2023-04-03T03:58:03,42.805,6.029,-0.025,0.033,0.005,102.0,104.0,101.0,13.4,1505.2,318.0,-0.8,1.8,2471.245,13.29,0.041,322.8
2023-04-03T04:04:03,42.805,6.029,-0.028,0.06,0.008,101.0,104.0,101.0,13.4,1505.2,342.8,-0.7,1.8,2471.311,13.28,0.066,335.0
2023-04-03T04:07:03,42.805,6.029,-0.041,0.067,0.017,102.0,103.0,100.0,13.4,1505.2,329.1,-0.7,1.8,2471.275,13.28,0.078,328.5
2023-04-03T04:10:03,42.805,6.029,-0.056,0.053,0.004,100.0,105.0,100.0,13.3,1505.2,323.3,-0.8,1.8,2471.279,13.28,0.077,313.4
2023-04-03T04:13:03,42.805,6.029,-0.045,0.043,0.028,101.0,103.0,100.0,13.4,1505.2,322.5,-0.7,1.9,2471.3,13.29,0.062,313.7
2023-04-03T04:16:03,42.805,6.029,-0.025,0.028,-0.023,102.0,103.0,100.0,13.4,1505.2,328.0,-0.8,1.8,2471.301,13.29,0.037,318.2
2023-04-03T04:19:03,42.805,6.029,-0.049,0.041,-0.01,102.0,102.0,100.0,13.4,1505.2,331.1,-0.7,1.8,2471.312,13.29,0.063,309.9
2023-04-03T04:22:03,42.805,6.029,-0.039,0.04,-0.016,101.0,104.0,100.0,13.4,1505.2,324.5,-0.8,1.8,2471.292,13.29,0.055,315.7
2023-04-03T04:25:03,42.805,6.029,-0.033,0.057,-0.015,103.0,104.0,101.0,13.4,1505.2,341.5,-0.7,1.8,2471.273,13.29,0.065,329.9
2023-04-03T04:28:03,42.805,6.029,-0.052,0.041,0.006,102.0,103.0,101.0,13.4,1505.2,325.7,-0.8,1.8,2471.27,13.29,0.066,308.3
2023-04-03T04:31:03,42.805,6.029,-0.024,0.065,0.012,101.0,105.0,100.0,13.4,1505.2,329.6,-0.8,1.8,2471.284,13.29,0.069,339.7
2023-04-03T04:34:03,42.805,6.029,-0.039,0.035,-0.021,103.0,103.0,100.0,13.4,1505.2,331.3,-0.8,1.8,2471.31,13.29,0.052,311.9
2023-04-03T04:37:03,42.805,6.029,-0.044,0.033,-0.024,102.0,102.0,101.0,13.4,1505.2,323.8,-0.8,1.8,2471.277,13.29,0.055,306.9
2023-04-03T04:40:03,42.805,6.029,-0.051,0.058,0.011,101.0,103.0,100.0,13.3,1505.2,332.2,-0.8,1.8,2471.307,13.29,0.077,318.7
2023-04-03T04:43:03,42.805,6.029,-0.01,0.056,0.052,101.0,104.0,101.0,13.4,1505.2,333.0,-0.8,1.8,2471.31,13.29,0.056,349.9
2023-04-03T04:46:03,42.805,6.029,-0.028,0.086,0.015,101.0,106.0,100.0,13.3,1505.2,340.2,-0.8,1.8,2471.281,13.29,0.09,342.0
2023-04-03T04:49:03,42.805,6.029,-0.051,0.033,0.002,102.0,106.0,100.0,13.4,1505.2,317.3,-0.8,1.8,2471.278,13.29,0.06,302.9
2023-04-03T04:52:03,42.805,6.029,-0.02,0.04,-0.007,102.0,104.0,101.0,13.4,1505.2,336.2,-0.8,1.8,2471.296,13.29,0.044,333.4
2023-04-03T04:55:03,42.805,6.029,-0.044,0.028,-0.027,102.0,104.0,100.0,13.4,1505.2,322.3,-0.7,1.8,2471.331,13.29,0.052,302.5
2023-04-03T04:58:03,42.805,6.029,-0.026,0.021,-0.043,101.0,104.0,102.0,13.4,1505.2,328.7,-0.8,1.8,2471.284,13.29,0.033,308.9
2023-04-03T05:04:03,42.805,6.029,-0.039,0.057,-0.001,101.0,104.0,100.0,13.4,1505.2,326.9,-0.8,1.8,2471.344,13.28,0.069,325.6
2023-04-03T05:07:03,42.805,6.029,-0.004,0.045,0.007,102.0,104.0,100.0,13.4,1505.2,339.2,-0.8,1.8,2471.3,13.28,0.045,354.9
2023-04-03T05:10:03,42.805,6.029,-0.033,0.062,-0.016,100.0,103.0,101.0,13.4,1505.2,338.8,-0.8,1.8,2471.342,13.28,0.07,332.0
2023-04-03T05:13:03,42.805,6.029,-0.059,0.053,0.008,101.0,104.0,100.0,13.3,1505.2,327.2,-0.8,1.8,2471.341,13.29,0.079,311.9
2023-04-03T05:16:03,42.805,6.029,-0.042,0.048,0.019,102.0,105.0,100.0,13.4,1505.2,323.3,-0.8,1.8,2471.311,13.29,0.063,318.8
2023-04-03T05:19:03,42.805,6.029,-0.054,0.061,-0.004,101.0,105.0,100.0,13.4,1505.2,325.0,-0.8,1.8,2471.329,13.29,0.081,318.5
2023-04-03T05:22:03,42.805,6.029,-0.058,0.019,-0.03,101.0,104.0,100.0,13.4,1505.2,328.1,-0.8,1.8,2471.317,13.29,0.061,288.1
2023-04-03T05:25:03,42.805,6.029,-0.029,0.069,0.031,102.0,104.0,101.0,13.4,1505.2,324.3,-0.8,1.8,2471.283,13.29,0.074,337.2
2023-04-03T05:28:03,42.805,6.029,-0.035,0.062,0.009,101.0,103.0,101.0,13.4,1505.2,335.3,-0.8,1.8,2471.335,13.29,0.071,330.6
2023-04-03T05:31:03,42.805,6.029,-0.029,0.047,-0.023,101.0,103.0,101.0,13.3,1505.2,342.2,-0.7,1.8,2471.289,13.29,0.055,328.3
2023-04-03T05:34:03,42.805,6.029,-0.057,0.038,-0.005,102.0,104.0,101.0,13.4,1505.2,323.8,-0.7,1.9,2471.332,13.29,0.068,303.7
2023-04-03T05:37:03,42.805,6.029,-0.049,0.068,0.041,102.0,104.0,101.0,13.4,1505.2,324.3,-0.8,1.8,2471.289,13.29,0.083,324.2
2023-04-03T05:40:03,42.805,6.029,-0.034,0.047,-0.008,101.0,104.0,101.0,13.4,1505.2,322.0,-0.8,1.8,2471.295,13.29,0.058,324.1
2023-04-03T05:43:03,42.805,6.029,-0.048,0.036,-0.024,101.0,104.0,100.0,13.4,1505.2,323.3,-0.8,1.8,2471.282,13.29,0.06,306.9
2023-04-03T05:46:03,42.805,6.029,-0.044,0.018,-0.031,103.0,104.0,100.0,13.4,1505.2,323.8,-0.7,1.8,2471.312,13.29,0.047,292.2
2023-04-03T05:49:03,42.805,6.029,-0.052,0.047,-0.011,102.0,103.0,100.0,13.3,1505.2,325.5,-0.8,1.8,2471.303,13.29,0.07,312.1
2023-04-03T05:52:03,42.805,6.029,-0.048,0.068,0.006,101.0,105.0,100.0,13.3,1505.2,329.9,-0.7,1.8,2471.336,13.29,0.083,324.8
2023-04-03T05:55:03,42.805,6.029,-0.049,0.036,-0.026,101.0,102.0,100.0,13.3,1505.2,324.9,-0.8,1.8,2471.285,13.29,0.06,306.3
2023-04-03T05:58:03,42.805,6.029,-0.039,0.029,-0.017,101.0,101.0,102.0,13.4,1505.2,332.9,-0.8,1.8,2471.338,13.29,0.048,306.6
2023-04-03T06:04:03,42.805,6.029,-0.023,0.044,-0.004,101.0,103.0,100.0,13.3,1505.2,339.8,-0.8,1.8,2471.323,13.28,0.049,332.4
2023-04-03T06:07:03,42.805,6.029,-0.027,0.031,-0.002,102.0,103.0,101.0,13.4,1505.2,320.1,-0.8,1.8,2471.346,13.28,0.041,318.9
2023-04-03T06:10:03,42.805,6.029,-0.006,0.046,0.024,101.0,105.0,100.0,13.4,1505.2,332.4,-0.8,1.8,2471.317,13.29,0.046,352.6
2023-04-03T06:13:03,42.805,6.029,-0.055,0.057,0.005,101.0,105.0,100.0,13.3,1505.2,320.9,-0.7,1.8,2471.336,13.29,0.079,316.0
2023-04-03T06:16:03,42.805,6.029,-0.042,0.043,0.0,101.0,102.0,101.0,13.4,1505.2,330.4,-0.8,1.8,2471.339,13.29,0.06,315.7
2023-04-03T06:19:03,42.805,6.029,-0.004,0.021,-0.031,103.0,103.0,100.0,13.4,1505.2,341.2,-0.8,1.8,2471.311,13.29,0.021,349.2
2023-04-03T06:22:03,42.805,6.029,-0.017,0.003,-0.015,102.0,101.0,100.0,13.3,1505.2,320.7,-0.8,1.8,2471.343,13.29,0.017,280.0
2023-04-03T06:25:03,42.805,6.029,-0.02,0.045,0.006,101.0,102.0,100.0,13.3,1505.2,329.7,-0.8,1.8,2471.331,13.29,0.049,336.0
2023-04-03T06:28:03,42.805,6.029,-0.035,0.036,-0.013,101.0,102.0,101.0,13.4,1505.2,334.2,-0.8,1.8,2471.342,13.29,0.05,315.8
2023-04-03T06:31:03,42.805,6.029,-0.061,0.034,-0.015,101.0,104.0,100.0,13.3,1505.2,319.4,-0.8,1.8,2471.309,13.29,0.069,299.1
2023-04-03T06:34:03,42.805,6.029,-0.026,0.029,-0.022,102.0,103.0,100.0,13.4,1505.2,329.0,-0.8,1.8,2471.319,13.29,0.038,318.1
2023-04-03T06:37:03,42.805,6.029,-0.046,0.034,-0.001,101.0,102.0,100.0,13.4,1505.2,324.0,-0.7,1.9,2471.32,13.29,0.057,306.5
2023-04-03T06:40:03,42.805,6.029,-0.023,0.027,-0.002,100.0,101.0,100.0,13.4,1505.2,322.0,-0.8,1.8,2471.302,13.29,0.035,319.6
2023-04-03T06:43:03,42.805,6.029,-0.024,0.03,-0.004,102.0,102.0,100.0,13.3,1505.2,320.8,-0.8,1.9,2471.294,13.29,0.038,321.3
2023-04-03T06:46:03,42.805,6.029,-0.033,0.041,-0.01,100.0,102.0,100.0,13.4,1505.2,322.5,-0.7,1.8,2471.342,13.29,0.052,321.2
2023-04-03T06:49:03,42.805,6.029,-0.041,0.015,-0.041,101.0,101.0,100.0,13.4,1505.2,325.8,-0.8,1.9,2471.276,13.29,0.043,290.1
2023-04-03T06:52:03,42.805,6.029,-0.021,0.035,-0.022,101.0,102.0,101.0,13.3,1505.2,332.1,-0.8,1.8,2471.285,13.29,0.04,329.0
2023-04-03T06:55:03,42.805,6.029,-0.027,0.034,-0.005,102.0,101.0,101.0,13.3,1505.2,325.8,-0.7,1.8,2471.297,13.29,0.043,321.5
2023-04-03T06:58:03,42.805,6.029,-0.045,0.008,-0.031,102.0,102.0,100.0,13.4,1505.2,319.8,-0.8,1.8,2471.301,13.29,0.045,280.1
2023-04-03T07:04:03,42.805,6.029,-0.029,0.041,0.017,101.0,101.0,101.0,13.3,1505.2,326.5,-0.7,1.8,2471.327,13.28,0.05,324.7
2023-04-03T07:07:03,42.805,6.029,-0.047,0.013,-0.022,102.0,101.0,101.0,13.4,1505.2,318.2,-0.8,1.8,2471.333,13.28,0.048,285.5
2023-04-03T07:10:03,42.805,6.029,-0.034,0.002,-0.048,101.0,101.0,100.0,13.4,1505.2,335.4,-0.8,1.8,2471.332,13.29,0.034,273.4
2023-04-03T07:13:03,42.805,6.029,-0.039,0.031,0.001,101.0,101.0,101.0,13.3,1505.2,320.7,-0.8,1.8,2471.313,13.29,0.049,308.5
2023-04-03T07:16:03,42.805,6.029,-0.012,0.02,-0.002,101.0,101.0,100.0,13.4,1505.2,326.0,-0.8,1.8,2471.323,13.29,0.023,329.0
2023-04-03T07:19:03,42.805,6.029,-0.043,0.021,-0.052,101.0,102.0,99.0,13.4,1505.2,325.5,-0.7,1.8,2471.305,13.29,0.047,296.0
2023-04-03T07:22:03,42.805,6.029,-0.02,0.025,0.0,101.0,100.0,100.0,13.3,1505.2,316.7,-0.8,1.8,2471.323,13.29,0.032,321.3
2023-04-03T07:25:03,42.805,6.029,-0.017,0.023,-0.035,101.0,101.0,99.0,13.4,1505.2,335.1,-0.7,1.8,2471.289,13.29,0.028,323.5
2023-04-03T07:28:03,42.805,6.029,-0.025,0.011,-0.039,102.0,102.0,100.0,13.4,1505.2,321.3,-0.8,1.8,2471.288,13.29,0.027,293.7
2023-04-03T07:31:03,42.805,6.029,-0.039,0.02,-0.046,102.0,101.0,102.0,13.3,1505.2,334.2,-0.8,1.8,2471.282,13.29,0.043,297.1
2023-04-03T07:34:03,42.805,6.029,-0.019,0.017,-0.033,102.0,101.0,101.0,13.4,1505.2,322.3,-0.8,1.8,2471.303,13.29,0.025,311.8
2023-04-03T07:37:03,42.805,6.029,-0.033,0.034,-0.001,101.0,101.0,101.0,13.3,1505.2,341.2,-0.8,1.8,2471.282,13.29,0.047,315.9
2023-04-03T07:40:03,42.805,6.029,-0.008,0.005,-0.04,101.0,104.0,101.0,13.4,1505.2,324.3,-0.8,1.8,2471.28,13.29,0.009,302.0
2023-04-03T07:43:03,42.805,6.029,-0.032,0.026,-0.025,102.0,101.0,100.0,13.3,1505.2,334.4,-0.8,1.9,2471.285,13.29,0.041,309.1
2023-04-03T07:46:03,42.805,6.029,-0.056,0.04,-0.032,101.0,101.0,100.0,13.3,1505.2,331.1,-0.8,1.8,2471.262,13.29,0.068,305.5
2023-04-03T07:49:03,42.805,6.029,-0.04,0.025,-0.018,101.0,103.0,100.0,13.4,1505.2,318.4,-0.7,1.8,2471.246,13.29,0.047,302.0
2023-04-03T07:52:03,42.805,6.029,-0.063,0.045,-0.026,101.0,104.0,101.0,13.4,1505.2,335.4,-0.8,1.8,2471.287,13.29,0.077,305.5
2023-04-03T07:55:03,42.805,6.029,-0.049,0.028,-0.074,101.0,101.0,101.0,13.4,1505.2,330.0,-0.7,1.8,2471.3,13.29,0.056,299.7
2023-04-03T07:58:03,42.805,6.029,-0.026,0.013,-0.056,102.0,103.0,101.0,13.4,1505.2,321.9,-0.8,1.8,2471.287,13.29,0.029,296.6
2023-04-03T08:04:03,42.805,6.029,-0.011,0.006,-0.016,102.0,101.0,100.0,13.4,1505.2,327.9,-0.8,1.9,2471.324,13.28,0.012,298.6
2023-04-03T08:07:03,42.805,6.029,-0.038,0.031,-0.019,101.0,102.0,101.0,13.4,1505.2,329.9,-0.8,1.8,2471.324,13.29,0.049,309.2
2023-04-03T08:10:03,42.805,6.029,-0.026,0.041,-0.022,103.0,104.0,99.0,13.4,1505.2,340.3,-0.8,1.8,2471.33,13.29,0.048,327.6
2023-04-03T08:13:03,42.805,6.029,-0.019,0.016,-0.024,101.0,102.0,102.0,13.4,1505.2,324.5,-0.8,1.8,2471.3,13.29,0.024,310.1
2023-04-03T08:16:03,42.805,6.029,-0.021,0.011,-0.015,102.0,103.0,100.0,13.4,1505.2,343.4,-0.8,1.8,2471.285,13.29,0.023,297.6
2023-04-03T08:19:03,42.805,6.029,-0.031,0.039,-0.001,102.0,102.0,100.0,13.4,1505.2,320.3,-0.7,1.8,2471.295,13.29,0.049,321.5
2023-04-03T08:22:03,42.805,6.029,-0.022,0.012,-0.014,102.0,101.0,101.0,13.4,1505.2,327.5,-0.7,1.8,2471.28,13.29,0.025,298.6
2023-04-03T08:25:03,42.805,6.029,-0.046,0.037,-0.041,103.0,101.0,101.0,13.4,1505.2,341.5,-0.8,1.8,2471.289,13.29,0.059,308.8
2023-04-03T08:28:03,42.805,6.029,-0.037,-0.007,-0.045,101.0,102.0,101.0,13.4,1505.2,318.1,-0.8,1.8,2471.27,13.29,0.037,259.3
2023-04-03T08:31:03,42.805,6.029,-0.018,0.031,-0.035,104.0,100.0,100.0,13.4,1505.2,330.2,-0.7,1.8,2471.27,13.29,0.035,329.9
2023-04-03T08:34:03,42.805,6.029,-0.033,0.028,-0.035,102.0,101.0,100.0,13.4,1505.2,316.7,-0.8,1.8,2471.251,13.29,0.043,310.3
2023-04-03T08:37:03,42.805,6.029,-0.031,0.022,-0.036,101.0,101.0,100.0,13.3,1505.2,328.7,-0.8,1.8,2471.269,13.29,0.038,305.4
2023-04-03T08:40:03,42.805,6.029,-0.053,0.033,-0.035,101.0,101.0,100.0,13.3,1505.2,321.4,-0.8,1.8,2471.215,13.29,0.062,301.9
2023-04-03T08:43:03,42.805,6.029,-0.024,0.017,-0.032,101.0,101.0,101.0,13.4,1505.2,335.7,-0.7,1.8,2471.282,13.29,0.029,305.3
2023-04-03T08:46:03,42.805,6.029,-0.034,0.005,-0.033,100.0,101.0,100.0,13.3,1505.2,330.1,-0.8,1.8,2471.254,13.29,0.034,278.4
2023-04-03T08:49:03,42.805,6.029,-0.035,0.015,-0.053,101.0,101.0,101.0,13.4,1505.2,332.4,-0.8,1.8,2471.219,13.29,0.038,293.2
2023-04-03T08:52:03,42.805,6.029,-0.028,0.026,-0.042,103.0,102.0,100.0,13.4,1505.2,332.9,-0.8,1.8,2471.219,13.29,0.038,312.9
2023-04-03T08:55:03,42.805,6.029,-0.055,0.001,-0.065,101.0,101.0,100.0,13.4,1505.2,325.3,-0.8,1.8,2471.216,13.29,0.055,271.0
2023-04-03T08:58:03,42.805,6.029,-0.036,0.013,-0.055,103.0,103.0,100.0,13.4,1505.2,331.4,-0.8,1.8,2471.233,13.29,0.038,289.9
2023-04-03T09:04:03,42.805,6.029,-0.042,0.014,-0.041,101.0,101.0,101.0,13.4,1505.2,316.8,-0.7,1.8,2471.237,13.28,0.044,288.4
2023-04-03T09:07:03,42.805,6.029,-0.053,0.001,-0.046,101.0,101.0,101.0,13.3,1505.2,320.4,-0.8,1.8,2471.292,13.28,0.053,271.1
2023-04-03T09:10:03,42.805,6.029,-0.049,0.022,0.0,102.0,101.0,102.0,13.4,1505.2,333.0,-0.8,1.8,2471.273,13.29,0.053,294.2
2023-04-03T09:13:03,42.805,6.029,-0.044,0.011,-0.023,102.0,102.0,100.0,13.4,1505.2,327.4,-0.8,1.8,2471.276,13.29,0.045,284.0
2023-04-03T09:16:03,42.805,6.029,-0.049,0.01,-0.026,101.0,102.0,100.0,13.3,1505.2,316.8,-0.7,1.8,2471.226,13.29,0.05,281.5
2023-04-03T09:19:03,42.805,6.029,-0.067,0.025,-0.051,102.0,99.0,103.0,13.3,1505.2,330.2,-0.7,1.8,2471.224,13.29,0.071,290.5
2023-04-03T09:22:03,42.805,6.029,-0.04,0.029,-0.028,102.0,102.0,101.0,13.3,1505.2,344.4,-0.7,1.8,2471.285,13.29,0.049,305.9
2023-04-03T09:25:03,42.805,6.029,-0.081,0.02,-0.021,102.0,101.0,100.0,13.4,1505.2,322.0,-0.8,1.8,2471.228,13.29,0.083,283.9
2023-04-03T09:28:03,42.805,6.029,-0.034,0.019,-0.031,103.0,100.0,100.0,13.4,1505.2,328.2,-0.7,1.8,2471.222,13.29,0.038,299.2
2023-04-03T09:31:03,42.805,6.029,-0.018,0.011,-0.039,101.0,102.0,100.0,13.4,1505.2,328.8,-0.8,1.8,2471.231,13.29,0.021,301.4
2023-04-03T09:34:03,42.805,6.029,-0.064,0.026,-0.03,102.0,101.0,101.0,13.3,1505.2,333.8,-0.8,1.8,2471.219,13.29,0.069,292.1
2023-04-03T09:37:03,42.805,6.029,-0.019,0.002,-0.047,100.0,100.0,101.0,13.4,1505.2,334.3,-0.8,1.8,2471.221,13.29,0.019,276.0
2023-04-03T09:40:03,42.805,6.029,-0.036,0.042,-0.023,103.0,102.0,100.0,13.3,1505.2,339.8,-0.8,1.8,2471.239,13.29,0.055,319.4
2023-04-03T09:43:03,42.805,6.029,-0.05,0.003,-0.033,102.0,100.0,102.0,13.3,1505.2,323.7,-0.8,1.8,2471.168,13.29,0.05,273.4
2023-04-03T09:46:03,42.805,6.029,-0.059,0.014,-0.028,101.0,102.0,101.0,13.3,1505.2,325.7,-0.8,1.8,2471.183,13.29,0.06,283.3
2023-04-03T09:49:03,42.805,6.029,-0.031,0.034,0.011,102.0,102.0,101.0,13.4,1505.2,333.8,-0.8,1.8,2471.185,13.29,0.046,317.6
2023-04-03T09:52:03,42.805,6.029,-0.03,0.026,-0.008,101.0,101.0,101.0,13.4,1505.2,328.6,-0.7,1.8,2471.202,13.29,0.039,310.9
2023-04-03T09:55:03,42.805,6.029,-0.055,0.039,-0.029,101.0,101.0,100.0,13.4,1505.2,327.9,-0.8,1.8,2471.211,13.29,0.067,305.3